Location: Puketoi
(40.5833°S, 176.0167°E)
Time: 13:39:05
(UTC+00:00)

Cosmos 1864 Rocket - Pass Details

Date: 08 February 2023
Orbit: 951 x 997 km, 82.9° (Epoch: 22 March)

Event Time Altitude Azimuth Distance (km) Brightness Sun altitude
Exits shadow 14:04:34 74° 229° (SW) 1,021 4.5 -30.3°
Drops below altitude 10° 14:10:28 10° 176° (S) 2,730 7.6 -29.8°
Sets 14:12:59 0° 174° (S) 3,677 8.5 -29.5°
